Change the Weather History Date:

Saturday, February 9, 2013

  Actual Average Record
Temperature  
Mean Temperature 32 °F 20 °F  
Max Temperature 37 °F 30 °F 58 °F (1977)
Min Temperature 27 °F 9 °F -41 °F (1994)
Degree Days  
Heating Degree Days 33 45  
Month to date heating degree days 368 416  
Since 1 July heating degree days 4935 5033  
Cooling Degree Days 0 0  
Month to date cooling degree days 0 0  
Year to date cooling degree days 0 0  
Moisture  
Dew Point 29 °F    
Average Humidity 88    
Maximum Humidity 100    
Minimum Humidity 75    
Precipitation  
Precipitation 0.23 in 0.02 in 0.66 in (1909)
Month to date precipitation 0.26 0.17  
Year to date precipitation 0.54 0.67  
Snow  
Snow T in 0.20 in 6.80 in (1909)
Month to date snowfall 0.8 2.2  
Since 1 July snowfall 20.2 25.8  
Snow Depth 2.00 in    
Sea Level Pressure  
Sea Level Pressure 29.82 in    
Wind  
Wind Speed 11 mph (SE)    
Max Wind Speed 20 mph    
Max Gust Speed 28 mph    
Visibility 5 miles    
Events Rain , Snow    
T = Trace of Precipitation, MM = Missing Value Source: NWS Daily Summary

Daily Weather History Graph

Daily Weather History Graph

Search for Another Location

Airport or City:

Trip Planner

Search our weather history database for the weather conditions in past years. The results will help you decide how hot, cold, wet, or windy it might be!

Date:

Astronomy

Feb. 09, 2013 Rise Set
Actual Time 7:40 AM CST 5:54 PM CST
Civil Twilight 7:10 AM CST 6:24 PM CST
Nautical Twilight 6:36 AM CST 6:58 PM CST
Astronomical Twilight 6:02 AM CST 7:32 PM CST
Moon 6:53 AM CST (2/9) 5:39 PM CST (2/9)
Length of Visible Light 11h 13m
Length of Day
10h 13m
Waning Crescent, 0% of the Moon is Illuminated
Feb 9
Waning Crescent
Feb 10
New
Feb 17
First Quarter
Feb 25
Full
Mar 4
Last Quarter

Hourly Weather History & Observations

Time (CST) Temp. Windchill Dew Point Humidity Pressure Visibility Wind Dir Wind Speed Gust Speed Precip Events Conditions
12:55 AM 28.9 °F 17.7 °F 26.1 °F 89% 29.96 in 7.0 mi South 15.0 mph 23.0 mph N/A   Clear
1:55 AM 28.0 °F 16.1 °F 25.0 °F 88% 29.95 in 7.0 mi SSE 16.1 mph - N/A   Clear
2:55 AM 28.0 °F 15.7 °F 25.0 °F 88% 29.93 in 7.0 mi SSE 17.3 mph 25.3 mph N/A   Clear
3:55 AM 28.0 °F 15.3 °F 25.0 °F 88% 29.91 in 7.0 mi SSE 18.4 mph 27.6 mph N/A   Clear
4:55 AM 27.0 °F 15.2 °F 25.0 °F 92% 29.90 in 7.0 mi SSE 15.0 mph 21.9 mph N/A   Clear
5:55 AM 28.0 °F 17.0 °F 25.0 °F 88% 29.91 in 7.0 mi SSE 13.8 mph - N/A   Clear
6:55 AM 27.0 °F 17.3 °F 25.0 °F 92% 29.92 in 7.0 mi SSE 10.4 mph 19.6 mph N/A   Clear
7:55 AM 27.0 °F 17.3 °F 25.0 °F 92% 29.92 in 5.0 mi SSE 10.4 mph - N/A   Clear
8:55 AM 28.0 °F 17.0 °F 26.1 °F 92% 29.92 in 4.0 mi SSE 13.8 mph - N/A   Clear
9:55 AM 30.9 °F 22.2 °F 28.0 °F 89% 29.91 in 5.0 mi South 10.4 mph - N/A   Clear
10:55 AM 35.1 °F 25.9 °F 30.0 °F 82% 29.89 in 6.0 mi South 13.8 mph - N/A   Haze
11:19 AM 35.6 °F 27.1 °F 28.4 °F 75% 29.85 in 6.0 mi South 12.7 mph 18.4 mph N/A   Haze
11:55 AM 35.1 °F 27.4 °F 30.0 °F 82% 29.88 in 6.0 mi South 10.4 mph - N/A   Haze
12:55 PM 35.1 °F 27.9 °F 30.0 °F 82% 29.86 in 6.0 mi SSE 9.2 mph - N/A   Haze
1:55 PM 36.0 °F 30.3 °F 30.0 °F 79% 29.83 in 7.0 mi South 6.9 mph - N/A   Overcast
2:55 PM 36.0 °F 31.1 °F 30.9 °F 82% 29.81 in 6.0 mi SE 5.8 mph - N/A   Haze
3:55 PM 36.0 °F 28.5 °F 30.9 °F 82% 29.81 in 6.0 mi SE 10.4 mph - N/A   Haze
4:08 PM 35.6 °F 28.0 °F 30.2 °F 81% 29.76 in 6.0 mi SE 10.4 mph - N/A   Haze
4:55 PM 36.0 °F 29.6 °F 30.9 °F 82% 29.77 in 5.0 mi East 8.1 mph - N/A   Haze
5:55 PM 34.0 °F 28.0 °F 30.9 °F 89% 29.78 in 5.0 mi East 6.9 mph - N/A   Clear
6:55 PM 34.0 °F 29.8 °F 30.9 °F 89% 29.80 in 4.0 mi Variable 4.6 mph - 0.00 in Snow Light Snow
7:05 PM 33.8 °F 27.7 °F 30.2 °F 87% 29.75 in 4.0 mi NNE 6.9 mph - 0.00 in Snow Light Snow
7:55 PM 34.0 °F 27.2 °F 32.0 °F 92% 29.77 in 5.0 mi NE 8.1 mph - 0.03 in Rain Light Rain
8:12 PM 33.8 °F 26.4 °F 32.0 °F 93% 29.72 in 4.0 mi NE 9.2 mph - 0.00 in Rain Light Rain
8:55 PM 33.1 °F 25.5 °F 32.0 °F 96% 29.75 in 4.0 mi NE 9.2 mph - 0.03 in Rain Light Rain
9:55 PM 35.1 °F 27.4 °F 34.0 °F 96% 29.73 in 3.0 mi East 10.4 mph - 0.07 in Rain Light Rain
10:06 PM 35.6 °F 31.7 °F 33.8 °F 93% 29.69 in 4.0 mi East 4.6 mph - 0.01 in Rain Light Rain
10:31 PM 35.6 °F 29.9 °F 33.8 °F 93% 29.67 in 4.0 mi ENE 6.9 mph - 0.04 in Rain Light Rain
10:40 PM 33.8 °F 27.0 °F 33.8 °F 100% 29.68 in 4.0 mi ENE 8.1 mph - 0.04 in Rain Light Rain
10:55 PM 34.0 °F 27.2 °F 34.0 °F 100% 29.70 in 4.0 mi ENE 8.1 mph - 0.06 in Rain Light Rain
11:55 PM 34.0 °F 27.2 °F 33.1 °F 96% 29.67 in 4.0 mi ENE 8.1 mph - 0.04 in   Overcast